Location: Bruch
(44.2051°N, 0.4120°E)
Time: 12:20:58
(UTC+00:00)

Cosmos 1328 Rocket - Pass Details

Date: 29 November 2020
Orbit: 601 x 627 km, 82.5° (Epoch: 26 January)

Event Time Altitude Azimuth Distance (km) Brightness Sun altitude
Exits shadow 04:35:39 52° 54° (NE) 783 4.2 -27.4°
Maximum altitude 04:36:06 54° 79° (ENE) 758 4.2 -27.3°
Drops below altitude 10° 04:40:27 10° 157° (SSE) 1,995 6.5 -26.5°
Sets 04:42:42 0° 162° (SSE) 2,898 7.3 -26.1°
